Regional Weather Roundup
Issued by NWS

Home | Current Version | Previous Version | Graphics & Text | Print | Product List | Glossary On
Versions: 1 2 3 4 5 6 7 8 9 10 11 12 13 14 15 16 17 18 19 20 21 22 23 24 25 26 27 28 29 30 31 32 33 34 35 36 37 38 39 40 41 42 43 44 45 46 47 48 49 50
000
ASUS43 KFSD 151110
RWRSD

WEATHER ROUNDUP FOR SOUTH DAKOTA
NATIONAL WEATHER SERVICE SIOUX FALLS SD
500 AM CST MON JAN 15 2018

NOTE: "FAIR" INDICATES FEW OR NO CLOUDS BELOW 12,000 FEET WITH NO
SIGNIFICANT WEATHER AND/OR OBSTRUCTIONS TO VISIBILITY.


SDZ001>005-009-010-012>017-151200-
NORTHWEST AND NORTH CENTRAL SOUTH DAKOTA

CITY           SKY/WX    TMP DP  RH WIND       PRES   REMARKS
BUFFALO          N/A     -9 -15  75 NW21      30.50R WCI -34
FAITH            N/A     -9 -14  78 N15       30.56R WCI -31
MOBRIDGE       PTCLDY    -5 -13  68 NW20      30.56R WCI -28
$$

SDZ012>016-024>037-041>051-057-063-072>074-151200-
SOUTHWEST AND SOUTH CENTRAL SOUTH DAKOTA

CITY           SKY/WX    TMP DP  RH WIND       PRES   REMARKS
RAPID CTY ARPT MIX PCPN   0  -6  76 N33G44    30.49R WCI -27
PIERRE         CLEAR     -4  -9  79 NW22      30.58R WCI -28
CUSTER         PTCLDY     4 -19  34 N12G21    30.26R WCI -12
ELLSWORTH AFB  CLEAR      0  -5  79 N28G37    30.49R WCI -25
PHILIP         CLEAR     -3  -8  79 NW10      30.61R WCI -20
PINE RIDGE     CLEAR      1  -7  68 VRB3      30.49R
SPEARFISH        N/A     -4  -8  84 NW13      30.51R WCI -23
WINNER         PTSUNNY    0  -6  76 NW23      30.53R WCI -23
$$

SDZ004>011-016>023-039-040-151200-
NORTHEAST SOUTH DAKOTA

CITY           SKY/WX    TMP DP  RH WIND       PRES   REMARKS
ABERDEEN       CLOUDY    -6 -13  71 N15       30.56R WCI -27
WATERTOWN      PTCLDY    -8 -13  78 N22G28    30.39R WCI -33
BROOKINGS        N/A     -7 -13  75 NW20        N/A  WCI -31
SISSETON         N/A     -7 -13  75 NW20      30.49R WCI -31
$$

SDZ017-020-022-023-036>040-048>070-151200-
SOUTHEAST SOUTH DAKOTA

CITY           SKY/WX    TMP DP  RH WIND       PRES   REMARKS
SIOUX FALLS    CLEAR     -2 -10  69 NW23G30   30.41R WCI -26
HURON          CLEAR     -4 -10  75 N17G26    30.53R WCI -26
CHAMBERLAIN    CLEAR      0  -6  77 NW17      30.55R WCI -21
MITCHELL       CLEAR     -2  -8  76 NW23      30.53R WCI -26
YANKTON        CLEAR      0  -7  72 NW21G28   30.48R WCI -22
$$

ABBREVIATIONS USED IN REMARKS
   TC - TEMPERATURE IN CELSIUS
  WCI - WIND CHILL INDEX
   HX - HEAT INDEX
  VSB - VISIBILITY





USA.gov is the U.S. government's official web portal to all federal, state and local government web resources and services.